[[{"header":{"parameterUnit":"m.s-1","parameterCategory":1,"la1":30.2991,"la2":30.254,"lo1":-89.0895,"lo2":-89.0444,"dy":0.0017,"dx":0.0017,"nx":28,"ny":28,"refTime":"2025-11-22T09:00:00:Z","depth":0,"parameterNumber":2,"parameterNumberName":"U-component_of_WINDS"},"data":[0,0,0,0,0,0,0,0,0,0,0,0,0,0,0,0,0,0,0,0,0,0,0,0,0,0,0,0,0,0,0,0,0,0,0,0,0,0,0,0,0,0,0,0,0,0,0,0,0,0,0,0,0,0,0,0,0,0,1.1027,1.1027,0,1.1118,1.1119,1.112,1.1115,1.1114,1.1112,1.1111,1.1208,1.1212,1.1216,0,0,0,0,0,0,0,0,0,0,0,0,0,1.0849,1.0852,1.1026,1.1028,1.1029,1.1118,1.1119,1.1121,1.1115,1.1114,1.1112,1.1111,1.1207,1.1212,1.1216,0,0,0,0,0,0,0,0,0,0,0,0,0,1.0932,1.0853,1.1026,1.1037,1.1039,1.1118,1.112,1.1121,1.1116,1.1114,1.1112,1.111,1.1206,1.1211,1.1217,1.1293,0,0,1.1234,1.1237,0,0,0,0,0,0,0,0,1.0927,1.0939,1.1034,1.1036,1.1038,1.1103,1.1092,1.1179,1.1116,1.1087,1.1111,1.1109,1.1175,1.1183,1.1205,1.1297,1.1301,1.1235,1.1238,1.1241,1.1242,0,0,0,0,0,0,0,1.0922,1.0935,1.1063,1.1035,1.1038,1.1038,1.1047,1.1109,1.1141,1.1089,1.1089,1.11,1.1176,1.1199,1.1207,1.1303,1.1235,1.124,1.1243,1.1246,1.1462,1.1464,0,0,0,0,0,0,1.0913,1.093,1.106,1.1066,1.0977,1.1043,1.1053,1.1084,1.114,1.1147,1.1101,1.1099,1.1191,1.1201,1.1211,1.1303,1.1241,1.1246,1.1249,1.1459,1.1462,1.1465,0,0,0,0,0,0,1.0909,1.0925,1.1056,1.0998,1.1014,1.1048,1.1083,1.1087,1.1111,1.115,1.1156,1.1119,1.1189,1.1203,1.1272,1.1306,1.1249,1.1254,1.1457,1.146,1.1463,1.1488,0,0,0,0,0,0,1.0904,1.0923,1.0952,1.0998,1.1018,1.1115,1.1085,1.1091,1.112,1.1118,1.1168,1.1174,1.1189,1.1263,1.1278,1.1313,1.1258,1.1454,1.1458,1.1462,1.1484,1.1492,1.1498,0,0,0,0,0,1.0898,1.0956,1.0953,1.0969,1.1054,1.1117,1.1128,1.1143,1.1123,1.1152,1.1177,1.1173,1.13,1.1271,1.1287,1.1324,1.1452,1.1457,1.1462,1.1481,1.149,1.1498,0,0,0,0,0,0,1.0914,1.0962,1.096,1.1034,1.1072,1.1116,1.1154,1.1152,1.1197,1.1193,1.121,1.1222,1.1291,1.1315,1.1281,1.14,1.1373,1.1382,1.1382,1.1392,1.1398,1.1391,1.1263,0,0,0,0,0,1.0925,1.0972,1.1012,1.1074,1.1093,1.112,1.1148,1.1156,1.1196,1.1212,1.1242,1.1282,1.133,1.1362,1.141,1.1488,1.1499,1.1521,1.1528,1.1534,1.1541,1.1584,1.1595,1.1482,1.1482,1.1481,0,0,1.0951,1.0983,1.1012,1.1078,1.1108,1.1157,1.1133,1.1186,1.1222,1.122,1.1287,1.1311,1.1356,1.143,1.1464,1.1452,1.1575,1.1541,1.1545,1.1549,1.1591,1.1601,1.1611,1.1485,1.1484,1.1484,0,0,1.1022,1.1051,1.1106,1.1136,1.1181,1.1198,1.1212,1.1256,1.1272,1.1339,1.1338,1.1383,1.1466,1.1499,1.1526,1.1609,1.1607,1.1624,1.1661,1.1702,1.1711,1.1719,1.1749,1.1759,1.1631,1.1631,1.1631,0,1.1048,1.112,1.1134,1.1187,1.1216,1.1216,1.1271,1.13,1.1359,1.138,1.1365,1.147,1.15,1.1582,1.1602,1.1624,1.164,1.1618,1.1709,1.1717,1.1725,1.1753,1.1764,1.1633,1.1633,1.1633,1.1633,0,1.115,1.1201,1.124,1.1295,1.1329,1.1383,1.1405,1.1438,1.1443,1.1463,1.1532,1.1568,1.1622,1.1643,1.1649,1.1725,1.1716,1.1705,1.1678,1.1737,1.1764,1.1775,1.1636,1.1635,1.1635,1.1634,0,0,1.1234,1.1295,1.131,1.1334,1.1384,1.1424,1.1478,1.153,1.1558,1.1599,1.1645,1.1716,1.1706,1.1737,1.1747,1.1783,1.1847,1.1768,1.1769,1.1781,1.1933,1.1941,1.1953,1.1845,1.1848,1.1849,1.1929,0,1.1309,1.1404,1.1418,1.1502,1.1549,1.1549,1.1597,1.1633,1.1653,1.1696,1.1718,1.1768,1.1751,1.177,1.1806,1.1831,1.1877,1.1826,1.1889,1.1891,1.1877,1.1967,1.1976,1.2049,1.194,1.1942,1.1943,0,1.141,1.1452,1.1541,1.1584,1.1604,1.1646,1.1695,1.1737,1.1778,1.179,1.1824,1.1829,1.1887,1.1857,1.1936,1.1901,1.1928,1.1944,1.1948,1.1954,1.192,1.1976,1.2073,1.2084,1.196,1.1958,1.1957,0,1.1462,1.1541,1.1604,1.1625,1.1677,1.1707,1.173,1.1769,1.18,1.1843,1.1863,1.1913,1.194,1.1979,1.1998,1.1975,1.2076,1.2048,1.2087,1.2087,1.2108,1.2107,1.2211,1.2126,1.2126,1.2126,1.2126,0,1.1545,1.1599,1.1627,1.1666,1.1727,1.1743,1.1803,1.1826,1.186,1.1904,1.1908,1.1949,1.1972,1.2017,1.2032,1.2095,1.2108,1.2119,1.2122,1.2119,1.2117,1.2136,1.2131,1.2129,1.2128,1.2128,1.2127,0,1.1612,1.1633,1.1702,1.1745,1.1758,1.18,1.1838,1.1876,1.1896,1.1951,1.1965,1.1996,1.2049,1.2071,1.2137,1.2147,1.2219,1.2219,1.2205,1.2206,1.2244,1.224,1.2364,1.2381,1.2285,1.2286,1.2287,0,1.1663,1.1704,1.1752,1.1781,1.1805,1.1852,1.1883,1.19,1.1933,1.1983,1.2015,1.2067,1.211,1.2195,1.2224,1.2274,1.2275,1.2315,1.2283,1.2277,1.2275,1.2272,1.2277,1.2321,1.2322,1.2323,1.2323,0,1.1751,1.176,1.1804,1.1851,1.1888,1.1927,1.1964,1.1988,1.2012,1.2048,1.2102,1.2135,1.2201,1.2254,1.2306,1.2331,1.2331,1.2333,1.2345,1.2341,1.2331,1.2337,1.2221,1.233,1.233,1.2329,1.2329,1.2329,1.1812,1.1849,1.1888,1.1936,1.1967,1.2002,1.204,1.2064,1.2108,1.2163,1.2171,1.2228,1.2269,1.2338,1.2365,1.2411,1.2401,1.2418,1.2422,1.2426,1.2428,1.2324,1.2421,1.2421,1.242,1.242,1.242,0,1.19,1.1925,1.197,1.2022,1.2061,1.2057,1.2099,1.2132,1.2181,1.2219,1.2261,1.2323,1.2374,1.2406,1.2458,1.2488,1.249,1.2501,1.2499,1.2505,1.2434,1.2419,1.2499,1.2499,1.2499,1.2499,1.2499,1.2499,1.195,1.2012,1.2025,1.2102,1.2127,1.2183,1.2207,1.224,1.2269,1.2338,1.238,1.24,1.2436,1.2491,1.2537,1.2546,1.2565,1.2576,1.2584,1.2518,1.251,1.2502,1.2487,1.2581,1.2581,1.2651,1.2651,1.2652]},{"header":{"parameterUnit":"m.s-1","parameterCategory":1,"la1":30.2991,"la2":30.254,"lo1":-89.0895,"lo2":-89.0444,"dy":0.0017,"dx":0.0017,"nx":28,"ny":28,"refTime":"2025-11-22T09:00:00:Z","depth":0,"parameterNumber":3,"parameterNumberName":"V-component_of_WINDS"},"data":[0,0,0,0,0,0,0,0,0,0,0,0,0,0,0,0,0,0,0,0,0,0,0,0,0,0,0,0,0,0,0,0,0,0,0,0,0,0,0,0,0,0,0,0,0,0,0,0,0,0,0,0,0,0,0,0,0,0,-0.2248,-0.2248,0,-0.2311,-0.2312,-0.2312,-0.2359,-0.2359,-0.2359,-0.236,-0.2427,-0.2428,-0.243,0,0,0,0,0,0,0,0,0,0,0,0,0,-0.2171,-0.2172,-0.2248,-0.2248,-0.2249,-0.2311,-0.2312,-0.2313,-0.2359,-0.2359,-0.236,-0.236,-0.2427,-0.2428,-0.243,0,0,0,0,0,0,0,0,0,0,0,0,0,-0.2216,-0.2172,-0.2248,-0.228,-0.2283,-0.2311,-0.2312,-0.2313,-0.2358,-0.2359,-0.236,-0.236,-0.2426,-0.2428,-0.243,-0.2432,0,0,-0.2437,-0.2438,0,0,0,0,0,0,0,0,-0.2213,-0.2219,-0.2274,-0.2277,-0.2281,-0.2327,-0.2309,-0.2353,-0.2358,-0.233,-0.236,-0.236,-0.2394,-0.2398,-0.2409,-0.2435,-0.2438,-0.2437,-0.2438,-0.2439,-0.244,0,0,0,0,0,0,0,-0.221,-0.2216,-0.2273,-0.2275,-0.2279,-0.2292,-0.2299,-0.2318,-0.2358,-0.2332,-0.2336,-0.2343,-0.2396,-0.2407,-0.2411,-0.2439,-0.2437,-0.2439,-0.244,-0.2441,-0.2472,-0.2471,0,0,0,0,0,0,-0.2202,-0.2214,-0.2271,-0.2275,-0.2248,-0.2293,-0.2301,-0.2312,-0.2358,-0.2365,-0.2342,-0.2345,-0.2403,-0.2408,-0.2414,-0.242,-0.2439,-0.2441,-0.2442,-0.2472,-0.2472,-0.2471,0,0,0,0,0,0,-0.22,-0.2206,-0.2268,-0.2245,-0.2254,-0.2294,-0.2306,-0.2313,-0.2324,-0.2365,-0.2373,-0.2346,-0.2404,-0.2411,-0.2427,-0.2423,-0.2442,-0.2444,-0.2473,-0.2472,-0.2471,-0.2432,0,0,0,0,0,0,-0.2197,-0.2205,-0.2205,-0.2245,-0.2255,-0.2279,-0.2306,-0.2314,-0.2328,-0.2331,-0.2371,-0.2378,-0.2405,-0.2424,-0.2429,-0.2426,-0.2446,-0.2473,-0.2472,-0.2472,-0.2434,-0.243,-0.2427,0,0,0,0,0,-0.2195,-0.2192,-0.2205,-0.2212,-0.2256,-0.2279,-0.2285,-0.2315,-0.2327,-0.2328,-0.2355,-0.2376,-0.2422,-0.2425,-0.2432,-0.2429,-0.2474,-0.2473,-0.2472,-0.2435,-0.2431,-0.2427,0,0,0,0,0,0,-0.2151,-0.2197,-0.2213,-0.2222,-0.2246,-0.2287,-0.2289,-0.2309,-0.2331,-0.2334,-0.2372,-0.238,-0.2393,-0.2413,-0.2415,-0.2435,-0.2451,-0.2451,-0.2421,-0.2417,-0.2413,-0.2409,-0.2447,0,0,0,0,0,-0.2142,-0.2157,-0.2197,-0.2202,-0.2213,-0.2249,-0.226,-0.2281,-0.2308,-0.2319,-0.2347,-0.2373,-0.2394,-0.2406,-0.2427,-0.2437,-0.2447,-0.2439,-0.2435,-0.2432,-0.2432,-0.2441,-0.2438,-0.2468,-0.2468,-0.2468,0,0,-0.2125,-0.2152,-0.2159,-0.2194,-0.2215,-0.223,-0.2257,-0.2271,-0.2284,-0.2322,-0.2339,-0.236,-0.2392,-0.2406,-0.2413,-0.2423,-0.2426,-0.243,-0.2428,-0.243,-0.2439,-0.2437,-0.2434,-0.2467,-0.2467,-0.2467,0,0,-0.2102,-0.2123,-0.213,-0.2151,-0.2182,-0.2207,-0.2208,-0.2246,-0.2262,-0.228,-0.2309,-0.2325,-0.2359,-0.2381,-0.2397,-0.2384,-0.2406,-0.239,-0.2371,-0.2379,-0.2377,-0.2375,-0.2372,-0.2371,-0.2389,-0.2389,-0.2389,0,-0.2076,-0.21,-0.2131,-0.2145,-0.216,-0.2194,-0.2203,-0.2222,-0.2259,-0.227,-0.2279,-0.2324,-0.2348,-0.2368,-0.2365,-0.2376,-0.2381,-0.2385,-0.2375,-0.2373,-0.2372,-0.237,-0.2368,-0.2387,-0.2387,-0.2388,-0.2388,0,-0.2068,-0.2084,-0.2086,-0.2121,-0.2136,-0.2147,-0.2182,-0.2194,-0.2214,-0.2238,-0.2258,-0.2287,-0.2316,-0.2322,-0.2342,-0.2346,-0.2352,-0.2367,-0.2385,-0.2367,-0.2365,-0.2364,-0.2384,-0.2385,-0.2386,-0.2386,0,0,-0.2018,-0.2071,-0.2072,-0.2089,-0.2127,-0.2141,-0.2154,-0.2182,-0.2192,-0.2217,-0.2231,-0.226,-0.2275,-0.2293,-0.2316,-0.2323,-0.2313,-0.2339,-0.234,-0.2334,-0.2322,-0.2311,-0.2309,-0.2328,-0.2328,-0.2328,-0.232,0,-0.2002,-0.2027,-0.2056,-0.2072,-0.2088,-0.2122,-0.2134,-0.2159,-0.2182,-0.2201,-0.2226,-0.2247,-0.2265,-0.2276,-0.2285,-0.2313,-0.2312,-0.2313,-0.2343,-0.2343,-0.2334,-0.2308,-0.2295,-0.2286,-0.2319,-0.2319,-0.2319,0,-0.1986,-0.2009,-0.2026,-0.2064,-0.2072,-0.2082,-0.2111,-0.2127,-0.2158,-0.2175,-0.2195,-0.222,-0.2238,-0.2253,-0.2279,-0.228,-0.2294,-0.231,-0.231,-0.2315,-0.2331,-0.2313,-0.2284,-0.2283,-0.2318,-0.2318,-0.2318,0,-0.195,-0.1986,-0.2001,-0.2014,-0.2059,-0.2066,-0.2085,-0.2116,-0.2131,-0.2157,-0.2168,-0.2195,-0.221,-0.2232,-0.2264,-0.2272,-0.2288,-0.2305,-0.2304,-0.2303,-0.2306,-0.2306,-0.228,-0.2313,-0.2313,-0.2313,-0.2313,0,-0.1929,-0.1939,-0.1985,-0.1995,-0.2007,-0.2042,-0.2053,-0.2076,-0.2104,-0.2119,-0.215,-0.2165,-0.2206,-0.2226,-0.2252,-0.2271,-0.2277,-0.2292,-0.2299,-0.229,-0.2288,-0.23,-0.2302,-0.2313,-0.2313,-0.2313,-0.2313,0,-0.1892,-0.1923,-0.1942,-0.1983,-0.1994,-0.2001,-0.2037,-0.2049,-0.2074,-0.2093,-0.21,-0.214,-0.2165,-0.2199,-0.2235,-0.2253,-0.2269,-0.2279,-0.2258,-0.2263,-0.226,-0.226,-0.2242,-0.2242,-0.2273,-0.2273,-0.2273,0,-0.1877,-0.1885,-0.1927,-0.1939,-0.1957,-0.1977,-0.1993,-0.2028,-0.2043,-0.208,-0.2088,-0.2115,-0.2139,-0.2178,-0.2211,-0.2239,-0.2251,-0.2243,-0.2256,-0.2247,-0.2253,-0.2253,-0.2255,-0.224,-0.224,-0.2239,-0.2239,0,-0.1848,-0.1863,-0.1884,-0.1911,-0.1929,-0.1952,-0.1977,-0.1986,-0.2027,-0.2043,-0.2069,-0.2087,-0.2124,-0.2152,-0.2185,-0.2207,-0.2231,-0.2235,-0.2236,-0.2227,-0.2216,-0.2224,-0.2251,-0.2235,-0.2235,-0.2236,-0.2236,-0.2236,-0.1822,-0.1832,-0.1863,-0.1886,-0.1909,-0.1931,-0.1944,-0.1971,-0.1993,-0.2025,-0.2045,-0.2071,-0.2104,-0.215,-0.2171,-0.2193,-0.2202,-0.2204,-0.2204,-0.2205,-0.2202,-0.2211,-0.2199,-0.2199,-0.2199,-0.2199,-0.2199,0,-0.1796,-0.1818,-0.1839,-0.1873,-0.1891,-0.1911,-0.194,-0.1955,-0.1976,-0.2004,-0.2027,-0.2058,-0.2086,-0.2121,-0.2152,-0.2162,-0.2174,-0.2169,-0.217,-0.2175,-0.2191,-0.2188,-0.2159,-0.2159,-0.2159,-0.2159,-0.2159,-0.2159,-0.1785,-0.1802,-0.1822,-0.1852,-0.1874,-0.1898,-0.1914,-0.1936,-0.1958,-0.1991,-0.2014,-0.2036,-0.2068,-0.2102,-0.2128,-0.2138,-0.2149,-0.2141,-0.2154,-0.217,-0.2173,-0.2177,-0.2173,-0.2143,-0.2143,-0.2136,-0.2136,-0.2136]}]]